Sky Ever — DSQX9 — position and weather

sailwx.info

Track history (hours):
 
Tides and Currents Weather Stations Pressure Air Temp Water Temp Dewpoint Dewpoint Depression Visibility Wind Speed Wind Dir Waves Ship Positions

Sky Ever

Last reported at 2014-Sep-04 10:29 UTC. Time now 2014-Sep-17 13:35 UTC.
Position N 34°36' E 134°54'.
Warning: this ship's position is 13 days out of date.

Length 76 m; draft 3.6 m.

Type: Cargo ship. MMSI: 441751000.

Date/timePositionNaut miles runAvg speedWind from/ knotsBaromVisibWave heightAir tempDewpointWater temp
2014-Sep-04 10:29N 34°36' E 134°54'910.1
2014-Sep-04 09:33N 34°36' E 135°05'1110.5
2014-Sep-04 08:33N 34°36' E 135°18'9 8.6
2014-Sep-04 07:33N 34°39' E 135°28'0 0.1
2014-Sep-04 06:33N 34°39' E 135°28'0 0.0
2014-Sep-04 05:33N 34°39' E 135°28'0 0.0
2014-Sep-04 04:33N 34°39' E 135°28'0 0.0
2014-Sep-04 03:33N 34°39' E 135°28'0 0.0
2014-Sep-04 02:33N 34°39' E 135°28'0 0.0
2014-Sep-04 01:27N 34°39' E 135°28'0 0.0
2014-Sep-04 00:21N 34°39' E 135°28'0 0.0
2014-Sep-03 23:33N 34°39' E 135°28'0 0.0
2014-Sep-03 22:27N 34°39' E 135°28'0 0.0
2014-Sep-03 21:33N 34°39' E 135°28'0 0.0
2014-Sep-03 20:33N 34°39' E 135°28'0 0.0
2014-Sep-03 19:33N 34°39' E 135°28'0 0.0
2014-Sep-03 18:27N 34°39' E 135°28'0 0.0
2014-Sep-03 17:33N 34°39' E 135°28'0 0.0
2014-Sep-03 16:21N 34°39' E 135°28'0 0.0
2014-Sep-03 15:33N 34°39' E 135°28'0 0.0
2014-Sep-03 14:27N 34°39' E 135°28'0 0.0
2014-Sep-03 13:27N 34°39' E 135°28'0 0.0
2014-Sep-03 12:33N 34°39' E 135°28'0 0.0
2014-Sep-03 11:33N 34°39' E 135°28'0 0.0
2014-Sep-03 10:15N 34°39' E 135°28'0 0.0
2014-Sep-03 09:03N 34°39' E 135°28'0 0.0
2014-Sep-03 08:33N 34°39' E 135°28'0 0.0
2014-Sep-03 07:27N 34°39' E 135°28'3 3.5
2014-Sep-03 06:33N 34°39' E 135°24'6 1.1
2014-Sep-03 00:32N 34°32' E 135°22'1 0.4
2014-Sep-02 22:17N 34°32' E 135°21'0 0.0
2014-Sep-02 21:23N 34°32' E 135°21'0 0.0
2014-Sep-02 20:29N 34°32' E 135°21'0 0.0
2014-Sep-02 19:23N 34°32' E 135°21'0 0.0
2014-Sep-02 18:29N 34°32' E 135°21'0 0.0
2014-Sep-02 17:23N 34°32' E 135°21'0 0.0
2014-Sep-02 16:23N 34°32' E 135°21'0 0.1
2014-Sep-02 15:29N 34°32' E 135°21'0 0.0
2014-Sep-02 14:29N 34°32' E 135°21'0 0.1
2014-Sep-02 13:32N 34°32' E 135°21'8 8.7
2014-Sep-02 12:34N 34°35' E 135°11'10 9.4
2014-Sep-02 11:32N 34°37' E 134°60'  
2014-Aug-26 11:28N 34°35' E 134°52'1111.9
2014-Aug-26 10:33N 34°36' E 135°06'10 9.7
2014-Aug-26 09:33N 34°36' E 135°17'8 6.8
2014-Aug-26 08:25N 34°40' E 135°25'0 0.1
2014-Aug-26 07:31N 34°40' E 135°25'0 0.0
2014-Aug-26 06:31N 34°40' E 135°25'0 0.0
2014-Aug-26 05:31N 34°40' E 135°25'0 0.0
2014-Aug-26 04:25N 34°40' E 135°25'3 3.8
2014-Aug-26 03:33N 34°38' E 135°23'0 0.3
2014-Aug-26 02:24N 34°37' E 135°23'0 0.0
2014-Aug-26 00:24N 34°37' E 135°23'0 0.0
2014-Aug-25 23:12N 34°37' E 135°23'0 0.0
2014-Aug-25 22:24N 34°38' E 135°23'0 0.0
2014-Aug-25 21:30N 34°38' E 135°23'0 0.1
2014-Aug-25 20:30N 34°37' E 135°23'0 0.0
2014-Aug-25 19:24N 34°37' E 135°23'0 0.0
2014-Aug-25 18:18N 34°37' E 135°23'0 0.0
2014-Aug-25 17:24N 34°37' E 135°23'0 0.0
2014-Aug-25 16:30N 34°37' E 135°23'0 0.0
2014-Aug-25 15:30N 34°37' E 135°23'0 0.0
2014-Aug-25 14:30N 34°37' E 135°23'0 0.0
2014-Aug-25 13:30N 34°37' E 135°23'0 0.1
2014-Aug-25 12:30N 34°37' E 135°23'0 0.0
2014-Aug-25 11:24N 34°37' E 135°23'0 0.0
2014-Aug-25 10:30N 34°37' E 135°23'  
Track history (hours):
 
Tides and Currents Weather Stations Pressure Air Temp Water Temp Dewpoint Dewpoint Depression Visibility Wind Speed Wind Dir Waves Ship Positions

Sky Ever

Last reported at 2014-Sep-04 10:29 UTC. Time now 2014-Sep-17 13:35 UTC.
Position N 34°36' E 134°54'.
Warning: this ship's position is 13 days out of date.

Length 76 m; draft 3.6 m.

Type: Cargo ship. MMSI: 441751000.

Date/timePositionNaut miles runAvg speedWind from/ knotsBaromVisibWave heightAir tempDewpointWater temp
2014-Sep-04 10:29N 34°36' E 134°54'910.1
2014-Sep-04 09:33N 34°36' E 135°05'1110.5
2014-Sep-04 08:33N 34°36' E 135°18'9 8.6
2014-Sep-04 07:33N 34°39' E 135°28'0 0.1
2014-Sep-04 06:33N 34°39' E 135°28'0 0.0
2014-Sep-04 05:33N 34°39' E 135°28'0 0.0
2014-Sep-04 04:33N 34°39' E 135°28'0 0.0
2014-Sep-04 03:33N 34°39' E 135°28'0 0.0
2014-Sep-04 02:33N 34°39' E 135°28'0 0.0
2014-Sep-04 01:27N 34°39' E 135°28'0 0.0
2014-Sep-04 00:21N 34°39' E 135°28'0 0.0
2014-Sep-03 23:33N 34°39' E 135°28'0 0.0
2014-Sep-03 22:27N 34°39' E 135°28'0 0.0
2014-Sep-03 21:33N 34°39' E 135°28'0 0.0
2014-Sep-03 20:33N 34°39' E 135°28'0 0.0
2014-Sep-03 19:33N 34°39' E 135°28'0 0.0
2014-Sep-03 18:27N 34°39' E 135°28'0 0.0
2014-Sep-03 17:33N 34°39' E 135°28'0 0.0
2014-Sep-03 16:21N 34°39' E 135°28'0 0.0
2014-Sep-03 15:33N 34°39' E 135°28'0 0.0
2014-Sep-03 14:27N 34°39' E 135°28'0 0.0
2014-Sep-03 13:27N 34°39' E 135°28'0 0.0
2014-Sep-03 12:33N 34°39' E 135°28'0 0.0
2014-Sep-03 11:33N 34°39' E 135°28'0 0.0
2014-Sep-03 10:15N 34°39' E 135°28'0 0.0
2014-Sep-03 09:03N 34°39' E 135°28'0 0.0
2014-Sep-03 08:33N 34°39' E 135°28'0 0.0
2014-Sep-03 07:27N 34°39' E 135°28'3 3.5
2014-Sep-03 06:33N 34°39' E 135°24'6 1.1
2014-Sep-03 00:32N 34°32' E 135°22'1 0.4
2014-Sep-02 22:17N 34°32' E 135°21'0 0.0
2014-Sep-02 21:23N 34°32' E 135°21'0 0.0
2014-Sep-02 20:29N 34°32' E 135°21'0 0.0
2014-Sep-02 19:23N 34°32' E 135°21'0 0.0
2014-Sep-02 18:29N 34°32' E 135°21'0 0.0
2014-Sep-02 17:23N 34°32' E 135°21'0 0.0
2014-Sep-02 16:23N 34°32' E 135°21'0 0.1
2014-Sep-02 15:29N 34°32' E 135°21'0 0.0
2014-Sep-02 14:29N 34°32' E 135°21'0 0.1
2014-Sep-02 13:32N 34°32' E 135°21'8 8.7
2014-Sep-02 12:34N 34°35' E 135°11'10 9.4
2014-Sep-02 11:32N 34°37' E 134°60'  
2014-Aug-26 11:28N 34°35' E 134°52'1111.9
2014-Aug-26 10:33N 34°36' E 135°06'10 9.7
2014-Aug-26 09:33N 34°36' E 135°17'8 6.8
2014-Aug-26 08:25N 34°40' E 135°25'0 0.1
2014-Aug-26 07:31N 34°40' E 135°25'0 0.0
2014-Aug-26 06:31N 34°40' E 135°25'0 0.0
2014-Aug-26 05:31N 34°40' E 135°25'0 0.0
2014-Aug-26 04:25N 34°40' E 135°25'3 3.8
2014-Aug-26 03:33N 34°38' E 135°23'0 0.3
2014-Aug-26 02:24N 34°37' E 135°23'0 0.0
2014-Aug-26 00:24N 34°37' E 135°23'0 0.0
2014-Aug-25 23:12N 34°37' E 135°23'0 0.0
2014-Aug-25 22:24N 34°38' E 135°23'0 0.0
2014-Aug-25 21:30N 34°38' E 135°23'0 0.1
2014-Aug-25 20:30N 34°37' E 135°23'0 0.0
2014-Aug-25 19:24N 34°37' E 135°23'0 0.0
2014-Aug-25 18:18N 34°37' E 135°23'0 0.0
2014-Aug-25 17:24N 34°37' E 135°23'0 0.0
2014-Aug-25 16:30N 34°37' E 135°23'0 0.0
2014-Aug-25 15:30N 34°37' E 135°23'0 0.0
2014-Aug-25 14:30N 34°37' E 135°23'0 0.0
2014-Aug-25 13:30N 34°37' E 135°23'0 0.1
2014-Aug-25 12:30N 34°37' E 135°23'0 0.0
2014-Aug-25 11:24N 34°37' E 135°23'0 0.0
2014-Aug-25 10:30N 34°37' E 135°23'  

Dump ship's entire track history